Retour au catalogue

NIMBUS 2 DEB

ActifSSO
NORAD 59972·DEBRIS·🇺🇸 United States

Lancé May 15, 1966 depuis Vandenberg Space Force Base

Loading…

Prochains Passages (prochaines 24 heures)

TLE

FraisSource: Space-Track

Époque: Sep 14, 2026, 13:54 UTC

1 59972U 66040CB  26257.57968179  .00000975  00000-0  18680-2 0  9998
2 59972 100.4343 109.4960 0050080  44.4315 316.0813 13.39903595271720

Suivez NIMBUS 2 DEB en temps réel avec AllMySat

Download on the App Store